Regional Weather Roundup
Issued by NWS Burlington, VT

Current Version | Previous Version | Text Only | Print | Product List | Glossary On
Versions: 1 2 3 4 5 6 7 8 9 10 11 12 13 14 15 16 17 18 19 20 21 22 23 24 25 26 27 28 29 30 31 32 33 34 35 36 37 38 39 40 41 42 43 44 45 46 47 48 49 50
307
ASUS41 KBTV 241510
RWRBTV
VERMONT REGIONAL WEATHER ROUNDUP
NATIONAL WEATHER SERVICE BURLINGTON VT
1100 AM EDT FRI MAR 24 2017

NOTE: "FAIR" INDICATES FEW OR NO CLOUDS BELOW 12,000 FEET WITH NO
SIGNIFICANT WEATHER AND/OR OBSTRUCTIONS TO VISIBILITY.

* THESE REPORTS ARE NOT UNDER NWS QUALITY CONTROL AND/OR DO NOT
  REPORT WEATHER SUCH AS PRECIPITATION AND FOG.

VTZ001>019-241600-
_____VERMONT_____


CITY           SKY/WX    TMP DP  RH WIND       PRES   REMARKS
BURLINGTON     LGT SNOW  31  26  82 S10       30.22F WCI  22
MONTPELIER     SNOW      25  22  88 S7        30.26F VSB 1/2 WCI  17
MORRISVILLE    SNOW      26  24  92 S6        30.24F VSB 1/4 WCI  19
ST. JOHNSBURY*   N/A     25  22  88 MISG      30.27F
LYNDONVILLE*   LGT SNOW  23  20  90 SE7       30.26F VSB 3/4 WCI  14
MIDDLEBURY*    LGT SNOW  33  19  56 S15       30.24S WCI  22
RUTLAND*       LGT SNOW  34  19  55 S15       30.24F WCI  24
SPRINGFIELD    CLOUDY    30   9  41 CALM      30.30F
HIGHGATE*      LGT SNOW  29  26  90 S12G23    30.21F VSB 3/4 WCI  19
NEWPORT*       LGT SNOW  24  20  87 S12       30.22F VSB 1   WCI  12
BENNINGTON     LGT SNOW  33  24  69 S13G23    30.26F VSB 1   WCI  24
SUTTON*          N/A     21 N/A N/A MISG        N/A

_____LAKE CHAMPLAIN_____


CITY           SKY/WX    TMP DP  RH WIND       PRES   REMARKS
BURTON ISLAND*   N/A     30  30 100 SW22        N/A  WCI  17
COLCHESTER RF*   N/A     32  30  93 S25         N/A  WCI  19
DIAMOND ISL*     N/A     30  28  93 S6          N/A  WCI  24

$$

NYZ007-026>031-035-052-083-087-241600-
_____NORTHERN NEW YORK_____


CITY           SKY/WX    TMP DP  RH WIND       PRES   REMARKS
PLATTSBURGH    LGT SNOW  30  24  78 S13       30.21F WCI  20
SARANAC LAKE   LGT SNOW  28  24  85 SW13      30.07F FOG     WCI  17
MASSENA        CLOUDY    33  30  88 SE8       30.14F WCI  26
WATERTOWN      CLOUDY    36  32  85 S8        30.09F WCI  30
FT DRUM        DRIZZLE   32  28  86 SE10      30.07F WCI  24
ALBANY         LGT SNOW  32  24  72 S15G24    30.28F VSB 3/4 WCI  22
GLENS FALLS    LGT SNOW  31  20  63 SW10G18   30.26F VSB 3/4 WCI  22

$$
NHZ002-005-011-241600-
_____NEW HAMPSHIRE_____


CITY           SKY/WX    TMP DP  RH WIND       PRES   REMARKS
LEBANON        CLOUDY    28  25  88 NE9       30.29F WCI  19
KEENE          CLOUDY    33  17  51 S7        30.32F WCI  27
MT WASHINGTON  SNOW      12  12 100 W55G64      N/A  VSB 1/16WCI -15
PLYMOUTH       SNOW      24  22  91 E3        30.35F VSB 1/2
WHITEFIELD     LGT SNOW  26  19  74 NW3       30.25F

$$

_____REGIONAL QUEBEC LOCATIONS_____


CITY           SKY/WX    TMP DP  RH WIND       PRES   REMARKS
MONTREAL       LGT SNOW  28  25  86 SE8       30.17F WCI  20
QUEBEC CITY    SNOWSHWR  23  19  86 CALM      30.21F
SHERBROOKE     LGT SNOW  27  21  80 S10G20    30.19F VSB 3/4 WCI  17

_____REGIONAL ONTARIO LOCATIONS_____


CITY           SKY/WX    TMP DP  RH WIND       PRES   REMARKS
OTTAWA         LGT SNOW  28  27  93 SE8       30.09F WCI  20

______KEY______
VSB  - VISIBILITY IN MILES
WCI  - WIND CHILL INDEX
HX   - HEAT INDEX
$$
NNNN




USA.gov is the U.S. government's official web portal to all federal, state and local government web resources and services.